When you browse on this site, cookies collect data to enhance your experience and personalize the content and advertising you see.
Visit our Privacy Policy to learn more. By continuing to use the site, you agree to this use of cookies and data.
  • In Latvia
  • List of Countries
  • For 7 days
  • Water Temperature
  • Satellite Maps
  • Weather Map
  • Weather Widgets
  • user-avatar
    Login

    Hourly Weather Levashovka

    Today, 18 June, Tuesday

    Time Temperature Precipitation Wind Pressure Humidity
    00:00 +16°C° 0 mm 2 mps 753 mmHg 81%
    01:00 +16°C° 0 mm 2 mps 753 mmHg 81%
    02:00 +16°C° 0 mm 2 mps 753 mmHg 80%
    03:00 +16°C° 0 mm 2 mps 753 mmHg 79%
    04:00 +17°C° 0 mm 2 mps 753 mmHg 79%
    05:00 +18°C° 0 mm 2 mps 753 mmHg 80%
    06:00 +18°C° 0 mm 2 mps 753 mmHg 80%
    07:00 +20°C° 0.1 mm 2 mps 753 mmHg 74%
    08:00 +21°C° 0.1 mm 2 mps 753 mmHg 68%
    09:00 +24°C° 0.1 mm 2 mps 753 mmHg 62%
    10:00 +24°C° 0.3 mm 2 mps 753 mmHg 62%
    11:00 +24°C° 0.3 mm 2 mps 753 mmHg 62%
    12:00 +25°C° 0.3 mm 2 mps 752 mmHg 62%
    13:00 +25°C° 0.4 mm 2 mps 752 mmHg 62%
    14:00 +25°C° 0.4 mm 3 mps 752 mmHg 62%
    15:00 +25°C° 0.4 mm 3 mps 752 mmHg 62%
    16:00 +25°C° 0.3 mm 3 mps 752 mmHg 67%
    17:00 +24°C° 0.3 mm 2 mps 751 mmHg 72%
    18:00 +24°C° 0.3 mm 2 mps 751 mmHg 77%
    19:00 +21°C° 0.5 mm 2 mps 751 mmHg 80%
    20:00 +20°C° 0.5 mm 2 mps 751 mmHg 84%
    21:00 +18°C° 0.5 mm 2 mps 751 mmHg 87%
    22:00 +17°C° 0 mm 2 mps 751 mmHg 88%
    23:00 +17°C° 0 mm 2 mps 751 mmHg 90%

    Tomorrow, 19 June, Wednesday

    Time Temperature Precipitation Wind Pressure Humidity
    00:00 +17°C° 0 mm 2 mps 751 mmHg 91%
    01:00 +16°C° 0 mm 2 mps 751 mmHg 91%
    02:00 +16°C° 0 mm 2 mps 751 mmHg 92%
    03:00 +16°C° 0 mm 2 mps 751 mmHg 92%
    04:00 +17°C° 0 mm 2 mps 751 mmHg 89%
    05:00 +18°C° 0 mm 2 mps 751 mmHg 87%
    06:00 +19°C° 0 mm 2 mps 751 mmHg 84%
    07:00 +20°C° 0.2 mm 2 mps 751 mmHg 79%
    08:00 +21°C° 0.2 mm 2 mps 751 mmHg 73%
    09:00 +24°C° 0.2 mm 2 mps 751 mmHg 68%
    10:00 +25°C° 0.2 mm 2 mps 751 mmHg 64%
    11:00 +25°C° 0.2 mm 3 mps 751 mmHg 60%
    12:00 +26°C° 0.2 mm 3 mps 751 mmHg 55%
    13:00 +26°C° 0.1 mm 3 mps 751 mmHg 56%
    14:00 +26°C° 0.1 mm 3 mps 751 mmHg 57%
    15:00 +26°C° 0.1 mm 4 mps 751 mmHg 58%
    16:00 +26°C° 0 mm 3 mps 751 mmHg 62%
    17:00 +25°C° 0 mm 3 mps 752 mmHg 66%
    18:00 +25°C° 0 mm 3 mps 752 mmHg 70%
    19:00 +22°C° 0 mm 3 mps 752 mmHg 75%
    20:00 +20°C° 0 mm 3 mps 752 mmHg 80%
    21:00 +19°C° 0 mm 3 mps 752 mmHg 84%
    22:00 +18°C° 0 mm 3 mps 753 mmHg 86%
    23:00 +18°C° 0 mm 3 mps 753 mmHg 88%

    Day after tomorrow, 20 June, Thursday

    Time Temperature Precipitation Wind Pressure Humidity
    00:00 +17°C° 0 mm 3 mps 753 mmHg 90%
    01:00 +17°C° 0 mm 3 mps 753 mmHg 91%
    02:00 +16°C° 0 mm 3 mps 753 mmHg 93%
    03:00 +16°C° 0 mm 3 mps 754 mmHg 94%
    04:00 +17°C° 0 mm 3 mps 754 mmHg 90%
    05:00 +18°C° 0 mm 3 mps 754 mmHg 87%
    06:00 +19°C° 0 mm 3 mps 755 mmHg 84%
    07:00 +21°C° 0 mm 3 mps 755 mmHg 78%
    08:00 +22°C° 0 mm 3 mps 755 mmHg 72%
    09:00 +25°C° 0 mm 3 mps 755 mmHg 66%
    10:00 +26°C° 0 mm 3 mps 755 mmHg 62%
    11:00 +26°C° 0 mm 3 mps 755 mmHg 59%
    12:00 +27°C° 0 mm 3 mps 755 mmHg 55%
    13:00 +27°C° 0 mm 3 mps 755 mmHg 55%
    14:00 +28°C° 0 mm 3 mps 755 mmHg 54%
    15:00 +28°C° 0 mm 3 mps 755 mmHg 54%
    16:00 +27°C° 0 mm 3 mps 755 mmHg 58%
    17:00 +27°C° 0 mm 3 mps 755 mmHg 62%
    18:00 +26°C° 0 mm 2 mps 755 mmHg 66%
    19:00 +24°C° 0 mm 2 mps 756 mmHg 69%
    20:00 +23°C° 0 mm 2 mps 756 mmHg 72%
    21:00 +20°C° 0 mm 2 mps 756 mmHg 75%
    22:00 +19°C° 0 mm 2 mps 756 mmHg 77%
    23:00 +19°C° 0 mm 2 mps 756 mmHg 78%

    21 June, Friday

    Time Temperature Precipitation Wind Pressure Humidity
    00:00 +18°C° 0 mm 2 mps 756 mmHg 80%
    01:00 +18°C° 0 mm 2 mps 757 mmHg 81%
    02:00 +18°C° 0 mm 2 mps 757 mmHg 82%
    03:00 +17°C° 0 mm 2 mps 757 mmHg 83%
    04:00 +18°C° 0 mm 2 mps 757 mmHg 81%
    05:00 +19°C° 0 mm 2 mps 757 mmHg 79%
    06:00 +20°C° 0 mm 2 mps 758 mmHg 77%
    07:00 +23°C° 0 mm 2 mps 758 mmHg 72%
    08:00 +24°C° 0 mm 2 mps 758 mmHg 66%
    09:00 +26°C° 0 mm 2 mps 758 mmHg 61%
    10:00 +26°C° 0 mm 2 mps 758 mmHg 58%
    11:00 +27°C° 0 mm 2 mps 758 mmHg 55%
    12:00 +28°C° 0 mm 2 mps 758 mmHg 52%
    13:00 +28°C° 0 mm 2 mps 758 mmHg 51%
    14:00 +28°C° 0 mm 2 mps 758 mmHg 51%
    15:00 +28°C° 0 mm 2 mps 758 mmHg 50%
    16:00 +28°C° 0 mm 2 mps 758 mmHg 56%
    17:00 +27°C° 0 mm 2 mps 758 mmHg 61%
    18:00 +26°C° 0 mm 2 mps 758 mmHg 66%
    19:00 +25°C° 0 mm 2 mps 758 mmHg 70%
    20:00 +23°C° 0 mm 1 mps 758 mmHg 74%
    21:00 +21°C° 0 mm 1 mps 758 mmHg 78%
    22:00 +21°C° 0 mm 1 mps 758 mmHg 79%
    23:00 +18°C° 0 mm 0 mps 758 mmHg 80%

    22 June, Saturday

    Time Temperature Precipitation Wind Pressure Humidity
    00:00 +18°C° 0 mm 0 mps 759 mmHg 81%
    01:00 +17°C° 0 mm 0 mps 759 mmHg 82%
    02:00 +17°C° 0 mm 0 mps 759 mmHg 83%
    03:00 +17°C° 0 mm 0 mps 759 mmHg 83%
    04:00 +18°C° 0 mm 0 mps 759 mmHg 81%
    05:00 +19°C° 0 mm 0 mps 759 mmHg 78%
    06:00 +20°C° 0 mm 0 mps 759 mmHg 75%
    07:00 +22°C° 0 mm 0 mps 759 mmHg 70%
    08:00 +23°C° 0 mm 0 mps 759 mmHg 65%
    09:00 +25°C° 0 mm 0 mps 759 mmHg 60%
    10:00 +25°C° 0 mm 0 mps 759 mmHg 56%
    11:00 +26°C° 0 mm 0 mps 759 mmHg 52%
    12:00 +27°C° 0 mm 0 mps 759 mmHg 48%
    13:00 +29°C° 0 mm 1 mps 759 mmHg 47%
    14:00 +29°C° 0 mm 1 mps 759 mmHg 46%
    15:00 +29°C° 0 mm 1 mps 758 mmHg 45%
    16:00 +29°C° 0 mm 1 mps 758 mmHg 49%
    17:00 +28°C° 0 mm 1 mps 758 mmHg 53%
    18:00 +28°C° 0 mm 1 mps 758 mmHg 57%
    19:00 +26°C° 0 mm 1 mps 758 mmHg 60%
    20:00 +24°C° 0 mm 1 mps 758 mmHg 62%
    21:00 +22°C° 0 mm 1 mps 758 mmHg 64%
    22:00 +22°C° 0 mm 1 mps 758 mmHg 66%
    23:00 +21°C° 0 mm 1 mps 758 mmHg 67%

    23 June, Sunday

    Time Temperature Precipitation Wind Pressure Humidity
    00:00 +20°C° 0 mm 1 mps 758 mmHg 69%
    01:00 +20°C° 0 mm 1 mps 758 mmHg 71%
    02:00 +20°C° 0 mm 1 mps 759 mmHg 72%
    03:00 +19°C° 0 mm 1 mps 759 mmHg 74%
    04:00 +21°C° 0 mm 1 mps 759 mmHg 72%
    05:00 +22°C° 0 mm 1 mps 759 mmHg 71%
    06:00 +23°C° 0 mm 1 mps 759 mmHg 70%
    07:00 +24°C° 0 mm 1 mps 759 mmHg 65%
    08:00 +26°C° 0 mm 1 mps 759 mmHg 61%
    09:00 +28°C° 0 mm 1 mps 759 mmHg 56%
    10:00 +28°C° 0 mm 1 mps 759 mmHg 52%
    11:00 +29°C° 0 mm 1 mps 759 mmHg 48%
    12:00 +30°C° 0 mm 1 mps 758 mmHg 45%
    13:00 +30°C° 0 mm 1 mps 758 mmHg 44%
    14:00 +30°C° 0 mm 1 mps 758 mmHg 44%
    15:00 +31°C° 0 mm 1 mps 758 mmHg 43%
    16:00 +30°C° 0 mm 1 mps 757 mmHg 48%
    17:00 +30°C° 0 mm 1 mps 757 mmHg 53%
    18:00 +29°C° 0 mm 1 mps 757 mmHg 58%
    19:00 +27°C° 0 mm 1 mps 757 mmHg 60%
    20:00 +23°C° 0 mm 0 mps 757 mmHg 62%
    21:00 +21°C° 0 mm 0 mps 757 mmHg 65%
    22:00 +21°C° 0 mm 0 mps 757 mmHg 66%
    23:00 +20°C° 0 mm 0 mps 757 mmHg 68%
    Show more